Tracking 35331 objects as of 17-Sep-2026
HD Live streaming from Space Station
objects crossing your sky now

STARLINK-38177

Track STARLINK-38177 now!
10-day predictions
STARLINK-38177 is classified as:


NORAD ID: 100234
Int'l Code: 2026-177X
Launch date: May 3, 2026
Source: United States (US)
Launch site: AIR FORCE WESTERN TEST RANGE (AFWTR)
Your satellite tracking list
Your tracking list is empty




NASA's NSSDC Master Catalog

Two Line Element Set (TLE):
1 A0234U 26177X   26258.88035778  .00059495  00000-0  10844-2 0  9992
2 A0234  97.2856 309.6092 0000643  61.4813 298.6503 15.49267406  6646
Source of the keplerian elements: AFSPC